#timestamp,LO_Frequency,Hit,StdDev 
1601456415.5,286047004.3,N
1601456435.3,286047002.8,N
1601456455.2,286047001.8,N
1601456475.9,286047005.4,N
1601456495.7,286047004.8,N
1601456515.6,286047005.7,N
1601456535.4,286047003.4,N
1601456555.2,286047005.4,N
1601456575.1,286047005.9,N
1601456576.0,286047005.9,N
1601456595.8,286047006.0,N
1601456615.7,286047002.9,N
1601456635.5,286047007.6,N
1601456655.3,286047006.8,N
1601456675.2,286047004.9,N
1601456695.0,286047005.3,N
1601456695.9,286047005.3,N
1601456715.8,286047005.1,N
1601456735.6,286047004.7,N
1601456755.4,286047005.8,N
1601456775.3,286047004.1,N
1601456795.1,286047006.0,N
1601456815.8,286047009.0,Y
1601456835.7,286047004.5,P
1601456855.5,286047005.7,P
1601456875.4,286047004.0,P
1601456895.2,286047000.0,N
1601456915.0,286046998.6,N
1601456915.9,286046998.6,N
1601456935.8,286046997.0,N
1601456955.6,286046998.6,N
1601456975.5,286047000.5,N
1601456995.3,286047002.5,N
1601457015.1,286047002.0,N
1601457035.9,286047000.5,N
1601457055.7,286047001.1,N
1601457075.5,286046998.7,N
1601457095.4,286046994.9,N
1601457115.2,286046999.3,N
1601457135.1,286047001.7,N
1601457136.0,286047001.7,N
1601457155.8,286047003.5,N
1601457175.6,286047004.7,N
1601457195.5,286047001.9,N
1601457215.3,286047001.9,N
1601457235.1,286047003.7,N
1601457255.9,286047002.9,N
1601457275.7,286047004.1,N
1601457295.6,286047001.4,N
1601457315.4,286047004.2,N
1601457335.2,286047001.8,N
1601457355.1,286047004.1,N
1601457356.0,286047004.1,N
1601457375.8,286047004.4,N
1601457395.7,286047002.5,N
1601457415.5,286047000.0,N
1601457435.3,286047002.7,N
1601457455.2,286047005.8,N
1601457475.9,286047003.5,N
1601457495.7,286047001.2,N
1601457515.6,286046998.8,N
1601457535.4,286046998.6,N
1601457555.3,286046999.5,N
1601457575.1,286046997.2,N
1601457576.0,286046997.2,N
1601457595.8,286046998.6,N
1601457615.7,286046998.1,N
1601457635.5,286046996.7,N
1601457655.3,286046998.7,N
1601457675.2,286046997.0,N
1601457695.0,286046995.5,N
1601457695.9,286046995.5,N
1601457715.8,286046995.2,N
1601457735.6,286046995.3,N
1601457755.4,286046994.3,N
1601457775.3,286046990.8,N
1601457795.1,286046991.3,N
1601457815.9,286046992.9,N
1601457835.7,286046994.6,N
1601457855.5,286046993.8,N
1601457875.4,286046994.6,N
1601457895.2,286046995.3,N
1601457915.0,286046996.8,N
1601457915.9,286046996.8,N
1601457935.8,286046997.2,N
1601457955.6,286046996.6,N
1601457975.5,286046998.4,N
1601457995.3,286047000.6,N
1601458015.1,286046998.2,N
1601458035.9,286046999.4,N
1601458055.7,286046995.6,N
1601458075.5,286046993.4,N
1601458095.4,286046994.2,N
1601458115.2,286046991.8,Y
1601458135.1,286046996.0,P
1601458136.0,286046996.0,P
1601458155.8,286046996.0,P
1601458175.6,286046999.4,Y
1601458195.5,286046998.6,P
1601458215.3,286046998.7,N
1601458235.2,286047000.4,N
1601458255.9,286047001.6,N
1601458275.7,286047004.3,N
1601458295.6,286047001.7,N
1601458315.4,286047001.5,N
1601458335.2,286047001.6,N
1601458355.1,286047001.9,N
1601458356.0,286047001.9,N
1601458375.8,286046999.2,N
1601458395.7,286046996.8,N
1601458415.5,286046996.8,N
1601458435.3,286046998.6,N
1601458455.2,286047002.6,N
1601458475.0,286047000.0,N
1601458475.9,286047000.0,N
1601458495.8,286046998.6,N
1601458515.6,286046996.9,N
1601458535.4,286046996.5,N
1601458555.3,286046998.9,N
1601458575.1,286047001.5,N
1601458595.8,286047003.3,N
1601458615.7,286047004.4,N
1601458635.5,286047001.4,N
1601458655.4,286046999.7,N
1601458675.2,286047004.0,N
1601458695.0,286047001.5,N
1601458695.9,286047001.5,N
1601458715.8,286047002.3,N
1601458735.6,286047001.7,N
1601458755.4,286047004.8,N
1601458775.3,286046999.8,N
1601458795.1,286046999.9,N
1601458815.9,286047000.2,N
1601458835.7,286047000.3,N
1601458855.5,286046996.5,N
1601458875.4,286047000.1,N
1601458895.2,286046998.3,N
1601458915.0,286047000.8,N
1601458946.0,286046999.0,E
1601458955.0,286046996.7,N
1601458955.9,286046996.7,P
1601458975.7,286046995.3,P
1601458995.6,286046992.1,Y
1601459015.4,286046996.5,P
1601459035.3,286046996.7,P
1601459055.1,286046995.8,P
1601459056.0,286046995.8,Y
1601459075.8,286046998.6,P
1601459095.7,286046998.6,N
1601459115.5,286046998.7,N
1601459135.4,286047000.6,N
1601459155.2,286047001.4,N
1601459175.0,286046999.9,N
1601459175.9,286046999.9,N
1601459195.8,286046997.2,N
1601459215.6,286046994.9,Y
1601459235.5,286046997.4,P
1601459255.3,286046999.3,N
1601459275.1,286046996.7,P
1601459295.9,286046999.6,N
1601459315.7,286046998.0,N
1601459335.5,286046995.3,Y
1601459355.4,286046999.5,P
1601459375.2,286047000.8,N
1601459395.1,286047000.9,N
1601459396.0,286047000.9,N
1601459415.8,286047003.5,Y
1601459435.6,286047005.8,P
1601459455.5,286047003.0,N
1601459475.3,286047004.2,N
1601459495.2,286047002.1,N
1601459515.9,286047000.3,N
1601459535.7,286047001.0,N
1601459555.6,286047001.2,N
1601459575.4,286046998.7,N
1601459595.2,286047002.5,N
1601459615.1,286046999.9,N
1601459616.0,286046999.9,N
1601459635.8,286047001.0,N
1601459655.7,286046998.3,N
1601459675.5,286046999.0,N
1601459695.3,286046998.8,N
1601459715.2,286047004.3,N
1601459735.0,286047005.5,N
1601459735.9,286047005.5,N
1601459755.7,286047005.5,N
1601459775.6,286047005.5,N
1601459795.4,286047003.0,N
1601459815.3,286047002.9,N
1601459835.1,286047004.1,N
1601459836.0,286047004.1,N
1601459855.8,286047004.1,N
1601459875.7,286047005.9,N
1601459895.5,286047004.4,N
1601459915.3,286047004.2,N
1601459935.2,286047002.8,N
1601459955.0,286046998.3,N
1601459955.9,286046998.3,N
1601459975.8,286047000.0,N
1601459995.6,286047001.4,N
